KB8TTR Weather Reports


time (UTC)temp
C
wind
direction
speed
KPH
gust
KPH
rain 1hr
cm
rain 24hr
cm
rain mn
cm
humidity
%
barometer
mb
20260831222832 25 95 0.0 0.0 0.00 0.00 0.00 80 1018.9
20260831222327 25 105 0.0 0.0 0.00 0.00 0.00 82 1018.8
20260831221827 25 106 0.0 0.0 0.00 0.00 0.00 82 1019.0
20260831221323 26 107 0.0 0.0 0.00 0.00 0.00 80 1018.9
20260831220818 26 102 0.0 0.0 0.00 0.00 0.00 80 1019.2
20260831220313 27 102 0.0 0.0 0.00 0.00 0.00 79 1019.2
20260831215808 27 123 0.0 0.0 0.00 0.00 0.00 75 1019.2
20260831215306 27 97 0.0 0.0 0.00 0.00 0.00 72 1019.1
20260831214800 28 99 1.6 1.6 0.00 0.00 0.00 69 1018.8
20260831214257 28 78 1.6 3.2 0.00 0.00 0.00 66 1018.5
20260831213752 28 99 0.0 1.6 0.00 0.00 0.00 66 1018.4
20260831213249 28 70 0.0 0.0 0.00 0.00 0.00 64 1018.2
20260831212743 28 95 0.0 1.6 0.00 0.00 0.00 64 1017.9
20260831212240 29 97 0.0 1.6 0.00 0.00 0.00 64 1018.0
20260831211738 29 97 0.0 1.6 0.00 0.00 0.00 65 1017.8
20260831211234 29 90 0.0 0.0 0.00 0.00 0.00 66 1017.8
20260831210728 29 90 1.6 3.2 0.00 0.00 0.00 66 1017.8
20260831210225 29 94 1.6 3.2 0.00 0.00 0.00 67 1017.7
20260831205724 29 93 1.6 1.6 0.00 0.00 0.00 67 1017.5
20260831205221 30 92 1.6 1.6 0.00 0.00 0.00 65 1017.7
20260831204720 30 101 3.2 3.2 0.00 0.00 0.00 64 1017.6
20260831204220 30 98 0.0 1.6 0.00 0.00 0.00 64 1017.7
20260831203713 30 90 3.2 3.2 0.00 0.00 0.00 63 1017.8
20260831203208 30 55 1.6 3.2 0.00 0.00 0.00 63 1017.6
20260831202706 30 262 3.2 4.8 0.00 0.00 0.00 63 1017.5
20260831202201 30 96 0.0 1.6 0.00 0.00 0.00 65 1017.7
20260831201700 29 87 0.0 0.0 0.00 0.00 0.00 67 1017.7
20260831201155 29 101 0.0 1.6 0.00 0.00 0.00 67 1017.5
20260831200651 29 95 1.6 1.6 0.00 0.00 0.00 66 1017.6
20260831200150 29 95 0.0 1.6 0.00 0.00 0.00 66 1017.4
20260831195646 29 127 1.6 1.6 0.00 0.00 0.00 65 1017.5
20260831195141 29 94 3.2 3.2 0.00 0.00 0.00 64 1017.5
20260831194636 30 88 1.6 1.6 0.00 0.00 0.00 67 1017.6
20260831194131 30 93 1.6 3.2 0.00 0.00 0.00 66 1017.9
20260831193625 30 93 1.6 1.6 0.00 0.00 0.00 66 1017.9
20260831193121 30 82 1.6 1.6 0.00 0.00 0.00 66 1017.8
20260831192616 29 99 0.0 0.0 0.00 0.00 0.00 69 1018.1
20260831192112 29 82 1.6 1.6 0.00 0.00 0.00 68 1018.2
20260831191607 29 97 0.0 1.6 0.00 0.00 0.00 67 1018.3
20260831191103 29 71 1.6 1.6 0.00 0.00 0.00 67 1018.0
20260831190558 28 93 1.6 1.6 0.00 0.00 0.00 69 1018.2
20260831190056 28 96 0.0 0.0 0.00 0.00 0.00 67 1018.0
20260831185553 29 57 0.0 3.2 0.00 0.00 0.00 67 1017.8
20260831185048 28 321 1.6 3.2 0.00 0.00 0.00 66 1017.7
20260831184547 28 102 0.0 1.6 0.00 0.00 0.00 69 1017.5
20260831184043 28 101 1.6 1.6 0.00 0.00 0.00 69 1017.8
20260831183543 28 100 3.2 3.2 0.00 0.00 0.00 67 1017.9
20260831183043 28 79 1.6 3.2 0.00 0.00 0.00 68 1018.2
20260831182542 28 100 0.0 0.0 0.00 0.00 0.00 66 1018.3
20260831182039 29 93 0.0 0.0 0.00 0.00 0.00 65 1018.3
20260831181538 29 101 0.0 1.6 0.00 0.00 0.00 65 1018.5
20260831181038 28 82 1.6 3.2 0.00 0.00 0.00 66 1018.4
20260831180533 28 104 0.0 1.6 0.00 0.00 0.00 68 1018.6
20260831180028 28 101 0.0 1.6 0.00 0.00 0.00 67 1018.8
20260831175523 28 101 0.0 0.0 0.00 0.00 0.00 69 1018.7
20260831175021 28 97 0.0 0.0 0.00 0.00 0.00 67 1019.1
20260831174521 28 12 1.6 3.2 0.00 0.00 0.00 67 1019.0
20260831174020 28 98 0.0 0.0 0.00 0.00 0.00 66 1019.2
20260831173519 28 99 0.0 0.0 0.00 0.00 0.00 66 1019.1
20260831173015 28 100 1.6 1.6 0.00 0.00 0.00 66 1019.1
20260831172510 28 100 0.0 1.6 0.00 0.00 0.00 66 1019.0
20260831172005 28 98 0.0 1.6 0.00 0.00 0.00 67 1019.2
20260831171500 28 100 0.0 1.6 0.00 0.00 0.00 68 1019.3
20260831170957 28 98 0.0 0.0 0.00 0.00 0.00 68 1019.3
20260831170453 28 148 1.6 3.2 0.00 0.00 0.00 70 1019.3
20260831165950 27 91 0.0 1.6 0.00 0.00 0.00 70 1019.4
20260831165445 28 91 1.6 1.6 0.00 0.00 0.00 68 1019.4
20260831164942 28 92 0.0 1.6 0.00 0.00 0.00 68 1019.6
20260831164439 28 99 1.6 1.6 0.00 0.00 0.00 67 1019.4
20260831163938 28 101 0.0 0.0 0.00 0.00 0.00 68 1019.5
20260831163434 28 98 0.0 0.0 0.00 0.00 0.00 68 1019.6
20260831162932 28 97 0.0 1.6 0.00 0.00 0.00 67 1019.4
20260831162428 28 91 1.6 3.2 0.00 0.00 0.00 66 1019.3
20260831161926 28 95 1.6 1.6 0.00 0.00 0.00 66 1019.2
20260831161423 28 55 1.6 3.2 0.00 0.00 0.00 65 1019.3
20260831160918 28 96 1.6 3.2 0.00 0.00 0.00 64 1019.2
20260831160413 28 100 0.0 1.6 0.00 0.00 0.00 66 1019.2
20260831155908 28 65 3.2 3.2 0.00 0.00 0.00 64 1019.3
20260831155408 28 106 1.6 1.6 0.00 0.00 0.00 67 1019.3
20260831154909 28 75 1.6 3.2 0.00 0.00 0.00 65 1019.2
20260831154405 29 89 3.2 3.2 0.00 0.00 0.00 61 1019.1
20260831153903 28 100 1.6 1.6 0.00 0.00 0.00 66 1019.2
20260831153359 29 97 1.6 1.6 0.00 0.00 0.00 66 1019.2
20260831152855 29 6 4.8 4.8 0.00 0.00 0.00 66 1019.3
20260831152351 29 101 0.0 0.0 0.00 0.00 0.00 67 1019.3
20260831151846 28 93 0.0 0.0 0.00 0.00 0.00 69 1019.1
20260831151345 28 56 0.0 0.0 0.00 0.00 0.00 68 1019.1
20260831150840 27 85 0.0 0.0 0.00 0.00 0.00 70 1019.1
20260831150336 27 102 0.0 0.0 0.00 0.00 0.00 73 1019.3
20260831145835 27 120 0.0 0.0 0.00 0.00 0.00 73 1019.2
20260831145332 27 100 0.0 0.0 0.00 0.00 0.00 74 1019.4
20260831144827 27 72 0.0 0.0 0.00 0.00 0.00 73 1019.5
20260831144323 27 108 0.0 0.0 0.00 0.00 0.00 74 1019.3
20260831143822 27 88 0.0 0.0 0.00 0.00 0.00 74 1019.4
20260831143318 26 102 0.0 0.0 0.00 0.00 0.00 75 1019.1
20260831142813 26 101 0.0 0.0 0.00 0.00 0.00 73 1019.0
20260831142308 26 115 0.0 0.0 0.00 0.00 0.00 73 1019.1
20260831141808 26 99 0.0 0.0 0.00 0.00 0.00 74 1019.1
20260831141304 26 99 0.0 0.0 0.00 0.00 0.00 76 1019.1
20260831140804 26 92 0.0 0.0 0.00 0.00 0.00 76 1018.9
20260831140258 26 117 0.0 0.0 0.00 0.00 0.00 75 1018.6
20260831135755 26 97 0.0 0.0 0.00 0.00 0.00 76 1018.9
20260831135252 26 100 0.0 0.0 0.00 0.00 0.00 75 1018.9
20260831134747 25 101 0.0 0.0 0.00 0.00 0.00 77 1018.8
20260831134244 25 108 0.0 0.0 0.00 0.00 0.00 79 1018.6
20260831133742 25 92 0.0 0.0 0.00 0.00 0.00 80 1018.8
20260831133242 24 100 0.0 0.0 0.00 0.00 0.00 80 1018.7
20260831132738 24 102 0.0 0.0 0.00 0.00 0.00 80 1018.7
20260831132233 24 98 0.0 0.0 0.00 0.00 0.00 80 1018.9
20260831131732 24 99 0.0 0.0 0.00 0.00 0.00 80 1018.8
20260831131229 23 102 0.0 0.0 0.00 0.00 0.00 81 1018.7
20260831130724 23 109 0.0 0.0 0.00 0.00 0.00 82 1018.7
20260831130220 23 103 0.0 0.0 0.00 0.00 0.00 83 1018.9
20260831125718 23 99 0.0 0.0 0.00 0.00 0.00 83 1018.7
20260831125215 23 106 0.0 0.0 0.00 0.00 0.00 83 1018.6
20260831124714 23 107 0.0 0.0 0.00 0.00 0.00 84 1018.5
20260831124211 23 105 0.0 0.0 0.00 0.00 0.00 83 1018.7
20260831123711 23 102 0.0 0.0 0.00 0.00 0.00 84 1018.7
20260831123210 22 109 0.0 0.0 0.00 0.00 0.00 84 1018.8
20260831122709 22 91 0.0 0.0 0.00 0.00 0.00 85 1018.4
20260831122206 22 102 0.0 0.0 0.00 0.00 0.00 85 1018.6
20260831121704 22 104 0.0 0.0 0.00 0.00 0.00 86 1018.8
20260831121201 22 100 0.0 0.0 0.00 0.00 0.00 86 1018.8
20260831120656 22 95 0.0 0.0 0.00 0.00 0.00 86 1018.8
20260831120151 22 69 0.0 0.0 0.00 0.00 0.00 87 1018.6
20260831115647 22 102 0.0 0.0 0.00 0.00 0.00 87 1018.6
20260831115142 22 100 0.0 0.0 0.00 0.00 0.00 87 1018.7
20260831114641 22 103 0.0 0.0 0.00 0.00 0.00 87 1018.8
20260831114136 22 103 0.0 0.0 0.00 0.00 0.00 87 1018.6
20260831113636 22 103 0.0 0.0 0.00 0.00 0.00 87 1018.5
20260831113131 22 95 0.0 0.0 0.00 0.00 0.00 87 1018.6
20260831112630 22 105 0.0 0.0 0.00 0.00 0.00 87 1018.7
20260831112125 22 99 0.0 0.0 0.00 0.00 0.00 88 1018.7
20260831111621 22 98 0.0 0.0 0.00 0.00 0.00 87 1018.5
20260831111117 22 100 0.0 0.0 0.00 0.00 0.00 87 1018.7
20260831110613 22 110 0.0 0.0 0.00 0.00 0.00 87 1018.5
20260831110108 22 102 0.0 0.0 0.00 0.00 0.00 87 1018.5
20260831105607 22 102 0.0 0.0 0.00 0.00 0.00 87 1018.6
20260831105102 22 102 0.0 0.0 0.00 0.00 0.00 87 1018.5
20260831104557 22 103 0.0 0.0 0.00 0.00 0.00 87 1018.6
20260831104053 22 103 0.0 0.0 0.00 0.00 0.00 86 1018.4
20260831103549 22 99 0.0 0.0 0.00 0.00 0.00 87 1018.6
20260831103045 22 92 0.0 0.0 0.00 0.00 0.00 87 1018.8
20260831102544 22 95 0.0 0.0 0.00 0.00 0.00 87 1018.5
20260831102039 22 95 0.0 0.0 0.00 0.00 0.00 87 1018.3
20260831101534 22 94 0.0 0.0 0.00 0.00 0.00 87 1018.2
20260831101031 22 89 0.0 0.0 0.00 0.00 0.00 87 1018.2
20260831100526 22 91 0.0 0.0 0.00 0.00 0.00 87 1018.1
20260831100022 22 107 0.0 0.0 0.00 0.00 0.00 87 1018.0
20260831095520 22 106 0.0 0.0 0.00 0.00 0.00 87 1017.9
20260831095015 22 101 0.0 0.0 0.00 0.00 0.00 87 1018.2
20260831094511 22 93 0.0 0.0 0.00 0.00 0.00 87 1018.1
20260831094007 22 99 0.0 0.0 0.00 0.00 0.00 87 1018.3
20260831093507 22 93 0.0 0.0 0.00 0.00 0.00 87 1018.0
20260831093004 22 103 0.0 0.0 0.00 0.00 0.00 87 1017.9
20260831092459 22 109 0.0 0.0 0.00 0.00 0.00 87 1017.8
20260831091954 22 97 0.0 0.0 0.00 0.00 0.00 87 1017.8
20260831091449 22 92 0.0 0.0 0.00 0.00 0.00 87 1017.9
20260831090944 22 89 0.0 0.0 0.00 0.00 0.00 87 1017.9
20260831090440 22 92 0.0 0.0 0.00 0.00 0.00 87 1018.0
20260831085936 22 105 0.0 0.0 0.00 0.00 0.00 87 1018.2
20260831085431 22 98 0.0 0.0 0.00 0.00 0.00 87 1017.9
20260831084931 22 101 0.0 0.0 0.00 0.00 0.00 87 1018.0
20260831084427 22 101 0.0 0.0 0.00 0.00 0.00 87 1018.2
20260831083923 22 100 0.0 0.0 0.00 0.00 0.00 87 1018.1
20260831083418 22 103 0.0 0.0 0.00 0.00 0.00 87 1018.1
20260831082917 22 99 0.0 0.0 0.00 0.00 0.00 87 1018.3
20260831082412 22 105 0.0 0.0 0.00 0.00 0.00 87 1018.3
20260831081908 22 100 0.0 0.0 0.00 0.00 0.00 87 1018.2
20260831081403 22 99 0.0 0.0 0.00 0.00 0.00 87 1018.3
20260831080859 22 104 0.0 0.0 0.00 0.00 0.00 87 1018.4
20260831080354 22 109 0.0 0.0 0.00 0.00 0.00 87 1018.5
20260831075850 22 104 0.0 0.0 0.00 0.00 0.00 88 1018.5
20260831075349 22 101 0.0 0.0 0.00 0.00 0.00 88 1018.5
20260831074845 22 102 0.0 0.0 0.00 0.00 0.00 88 1018.4
20260831074344 22 102 0.0 0.0 0.00 0.00 0.00 88 1018.3
20260831073840 22 100 0.0 0.0 0.00 0.00 0.00 88 1018.3
20260831073338 22 102 0.0 0.0 0.00 0.00 0.00 89 1018.3
20260831072834 22 97 0.0 0.0 0.00 0.00 0.00 88 1018.1
20260831072329 22 100 0.0 0.0 0.00 0.00 0.00 88 1018.3
20260831071826 22 109 0.0 0.0 0.00 0.00 0.00 88 1018.5
20260831071324 22 103 0.0 0.0 0.00 0.00 0.00 88 1018.4
20260831070820 22 103 0.0 0.0 0.00 0.00 0.00 88 1018.5
20260831070318 22 102 0.0 0.0 0.00 0.00 0.00 88 1018.6
20260831065818 22 104 0.0 0.0 0.00 0.00 0.00 88 1018.8
20260831065316 22 107 0.0 0.0 0.00 0.00 0.00 88 1018.6
20260831064811 22 114 0.0 0.0 0.00 0.00 0.00 88 1018.6
20260831064306 22 102 0.0 0.0 0.00 0.00 0.00 88 1018.7
20260831063802 22 105 0.0 0.0 0.00 0.00 0.00 88 1018.7
20260831063257 22 101 0.0 0.0 0.00 0.00 0.00 89 1018.7
20260831062757 22 100 0.0 0.0 0.00 0.00 0.00 89 1018.4
20260831062252 22 112 0.0 0.0 0.00 0.00 0.00 89 1018.4
20260831061751 22 107 0.0 0.0 0.00 0.00 0.00 89 1018.5
20260831061246 22 99 0.0 0.0 0.00 0.00 0.00 89 1018.6
20260831060742 22 51 0.0 0.0 0.00 0.00 0.00 89 1018.7
20260831060242 22 107 0.0 0.0 0.00 0.00 0.00 89 1018.8
20260831055741 22 103 0.0 0.0 0.00 0.00 0.00 89 1018.8
20260831055241 22 105 0.0 0.0 0.00 0.00 0.00 89 1018.7
20260831054736 22 99 0.0 0.0 0.00 0.00 0.00 90 1018.7
20260831054232 22 95 0.0 0.0 0.00 0.00 0.00 90 1018.8
20260831053730 22 93 0.0 0.0 0.00 0.00 0.00 90 1018.8
20260831053230 22 100 0.0 0.0 0.00 0.00 0.00 90 1018.7
20260831052730 21 350 0.0 1.6 0.00 0.00 0.00 91 1018.7
20260831052229 21 99 0.0 0.0 0.00 0.00 0.00 91 1018.7
20260831051727 21 101 0.0 0.0 0.00 0.00 0.00 91 1018.9
20260831051226 21 102 0.0 0.0 0.00 0.00 0.00 91 1018.9
20260831050721 21 101 0.0 0.0 0.00 0.00 0.00 91 1019.0
20260831050220 21 101 0.0 0.0 0.00 0.00 0.00 91 1019.1
20260831045714 21 100 0.0 0.0 0.00 0.00 0.00 91 1019.4
20260831045210 21 101 0.0 0.0 0.00 0.00 0.00 91 1019.3
20260831044710 21 100 0.0 0.0 0.00 0.00 0.00 91 1019.0
20260831044205 21 94 0.0 0.0 0.00 0.00 0.00 91 1019.1
20260831043701 21 95 0.0 0.0 0.00 0.00 0.00 91 1019.1
20260831043155 21 104 0.0 0.0 0.00 0.00 0.00 91 1019.2
20260831042655 21 97 0.0 0.0 0.00 0.00 0.00 90 1019.1
20260831042150 22 104 0.0 0.0 0.00 0.00 0.00 90 1019.0
20260831041645 22 102 0.0 0.0 0.00 0.00 0.00 90 1019.0
20260831041144 22 97 0.0 0.0 0.00 0.00 0.00 89 1019.1
20260831040640 22 104 0.0 1.6 0.00 0.00 0.00 89 1018.9
20260831040138 22 102 0.0 0.0 0.00 0.00 0.00 89 1018.8
20260831035638 22 107 0.0 0.0 0.00 0.25 0.25 89 1018.8
20260831035138 22 103 0.0 0.0 0.00 0.25 0.25 89 1018.8
20260831034636 22 107 0.0 0.0 0.00 0.25 0.25 89 1018.7
20260831034132 22 105 0.0 1.6 0.00 0.25 0.25 88 1018.8
20260831033628 22 105 1.6 1.6 0.00 0.25 0.25 89 1018.9
20260831033123 22 221 1.6 4.8 0.00 0.25 0.25 89 1018.6
20260831032622 22 131 1.6 3.2 0.00 0.25 0.25 89 1018.7
20260831032118 22 103 0.0 1.6 0.00 0.25 0.25 89 1018.7
20260831031618 22 104 0.0 1.6 0.00 0.25 0.25 89 1018.7
20260831031117 22 113 1.6 1.6 0.00 0.25 0.25 89 1018.9
20260831030617 22 101 1.6 1.6 0.00 0.25 0.25 89 1019.1
20260831030116 22 103 1.6 1.6 0.00 0.25 0.25 90 1019.2
20260831025614 21 100 0.0 1.6 0.00 0.25 0.25 90 1019.2
20260831025109 22 106 0.0 0.0 0.00 0.25 0.25 90 1019.2
20260831024606 22 100 0.0 0.0 0.00 0.25 0.25 90 1019.2
20260831024104 22 103 0.0 0.0 0.00 0.25 0.25 89 1019.3
20260831023603 22 104 0.0 0.0 0.00 0.25 0.25 89 1019.0
20260831023102 22 104 0.0 0.0 0.00 0.25 0.25 89 1019.2
20260831022557 22 103 0.0 0.0 0.00 0.25 0.25 88 1019.1
20260831022052 22 97 0.0 0.0 0.00 0.25 0.25 88 1018.9
20260831021551 22 105 0.0 0.0 0.00 0.25 0.25 88 1018.9
20260831021047 22 102 0.0 0.0 0.00 0.25 0.25 88 1019.1
20260831020542 22 112 3.2 3.2 0.00 0.25 0.25 88 1019.2
20260831020037 22 102 3.2 3.2 0.00 0.25 0.25 88 1019.2
20260831015532 22 109 1.6 1.6 0.00 0.25 0.25 87 1019.1
20260831015028 22 175 0.0 3.2 0.00 0.25 0.25 88 1019.1
20260831014528 22 107 0.0 0.0 0.00 0.25 0.25 88 1019.3
20260831014024 22 118 1.6 1.6 0.00 0.25 0.25 88 1019.1
20260831013519 22 122 1.6 3.2 0.00 0.25 0.25 88 1019.1
20260831013014 22 105 0.0 0.0 0.00 0.25 0.25 88 1019.2
20260831012509 22 116 3.2 3.2 0.00 0.25 0.25 88 1019.1
20260831012008 22 136 3.2 4.8 0.00 0.25 0.25 87 1019.1
20260831011503 21 113 1.6 1.6 0.00 0.25 0.25 87 1019.0
20260831010959 21 104 0.0 0.0 0.00 0.25 0.25 87 1019.2
20260831010458 21 139 3.2 3.2 0.00 0.25 0.25 87 1019.0
20260831005954 21 124 3.2 3.2 0.00 0.25 0.25 86 1019.1
20260831005450 21 106 1.6 1.6 0.00 0.25 0.25 86 1019.1
20260831004949 21 118 0.0 1.6 0.00 0.25 0.25 86 1019.2
20260831004446 21 123 1.6 1.6 0.00 0.25 0.25 86 1019.4
20260831003942 21 107 1.6 1.6 0.00 0.25 0.25 85 1019.2
20260831003437 21 116 0.0 1.6 0.00 0.25 0.25 85 1019.3
20260831002937 21 117 1.6 1.6 0.00 0.25 0.25 85 1019.3
20260831002436 21 117 1.6 1.6 0.00 0.25 0.25 85 1019.3
20260831001932 21 109 1.6 1.6 0.00 0.25 0.25 85 1019.5
20260831001426 21 124 0.0 0.0 0.00 0.25 0.25 85 1019.5
20260831000924 21 117 0.0 0.0 0.00 0.25 0.25 85 1019.3
20260831000419 21 105 0.0 0.0 0.00 0.25 0.25 85 1019.4
20260830235917 21 108 0.0 0.0 0.00 0.25 0.25 85 1019.6
20260830235413 21 115 1.6 1.6 0.00 0.25 0.25 84 1019.4
20260830234908 21 113 0.0 0.0 0.00 0.25 0.25 84 1019.9
20260830234403 21 105 0.0 0.0 0.00 0.25 0.25 83 1019.6
20260830233900 21 102 0.0 0.0 0.00 0.25 0.25 82 1019.4
20260830233400 22 112 1.6 3.2 0.18 0.25 0.25 81 1019.6
20260830232855 22 106 0.0 0.0 0.30 0.25 0.25 80 1019.7
20260830232351 22 112 1.6 3.2 0.13 0.23 0.23 79 1019.9
20260830231848 23 106 1.6 1.6 0.00 0.20 0.20 81 1020.1
20260830231342 23 100 1.6 1.6 0.00 0.20 0.20 79 1020.2
20260830230842 22 89 1.6 1.6 0.00 0.20 0.20 81 1020.2
20260830230338 23 19 0.0 3.2 0.00 0.20 0.20 89 1020.4
20260830225837 23 100 0.0 0.0 0.00 0.20 0.20 88 1020.3
20260830225332 23 100 0.0 0.0 0.00 0.20 0.20 87 1020.2
20260830224827 23 103 0.0 0.0 0.00 0.20 0.20 87 1020.2
20260830224321 23 94 0.0 0.0 0.00 0.20 0.20 86 1020.2
20260830223818 23 93 0.0 0.0 0.00 0.20 0.20 86 1020.2
20260830223314 23 93 0.0 0.0 0.00 0.20 0.20 86 1020.0